Location: ??
(35.4032°N, 139.3073°E)
Time: 11:48:48
(UTC+00:00)

Cosmos 2278 Rocket - Pass Details

Date: 13 April 2024
Orbit: 839 x 846 km, 71.0° (Epoch: 26 May)

Event Time Altitude Azimuth Distance (km) Brightness Sun altitude
Rises 19:12:45 0° 323° (NW) 3,411 5.2 -12.4°
Reaches altitude 10° 19:15:37 10° 310° (NW) 2,471 4.4 -11.8°
Maximum altitude 19:20:03 24° 259° (W) 1,681 3.2 -11.0°
Drops below altitude 10° 19:24:28 10° 207° (SSW) 2,457 4.2 -10.1°
Sets 19:27:20 0° 194° (SSW) 3,387 5.0 -9.6°
